DW1774 Weather Reports


Display with metric or nautical units.
time (UTC)temp
F
wind
direction
speed
MPH
gust
MPH
rain 1hr
in
rain 24hr
in
rain mn
in
humidity
%
barometer
mb
20260510161404 87 151 2.0 9.0 0.00 0.08 0.00 70 1014.1
20260510160904 87 144 4.0 9.0 0.00 0.08 0.00 71 1014.3
20260510160405 86 142 2.0 8.0 0.00 0.08 0.00 71 1014.3
20260510155904 86 132 2.0 12.0 0.00 0.08 0.00 73 1014.3
20260510155404 86 138 5.0 12.0 0.00 0.08 0.00 73 1014.5
20260510154904 85 105 3.0 10.0 0.00 0.08 0.00 74 1014.5
20260510153904 84 150 2.0 9.0 0.00 0.08 0.00 75 1014.6
20260510153404 84 169 4.0 9.0 0.00 0.08 0.00 76 1014.7
20260510152904 84 136 5.0 8.0 0.00 0.08 0.00 76 1014.7
20260510152405 84 134 3.0 9.0 0.00 0.08 0.00 75 1014.6
20260510151905 84 148 3.0 10.0 0.00 0.08 0.00 74 1014.6
20260510151403 85 150 5.0 10.0 0.00 0.08 0.00 74 1014.6
20260510145904 84 147 3.0 8.0 0.00 0.08 0.00 75 1014.5
20260510145405 84 135 2.0 7.0 0.00 0.08 0.00 77 1014.4
20260510144904 84 147 2.0 9.0 0.00 0.08 0.00 76 1014.5
20260510144404 84 158 3.0 9.0 0.00 0.08 0.00 77 1014.5
20260510143904 84 135 3.0 5.0 0.00 0.08 0.00 78 1014.5
20260510143404 83 175 2.0 10.0 0.00 0.08 0.00 80 1014.5
20260510142904 82 97 3.0 10.0 0.00 0.08 0.00 81 1014.6
20260510142404 82 141 2.0 5.0 0.00 0.08 0.00 82 1014.5
20260510141903 81 128 2.0 5.0 0.00 0.08 0.00 84 1014.5
20260510141404 81 72 2.0 5.0 0.00 0.08 0.00 84 1014.4
20260510140904 80 71 2.0 5.0 0.00 0.08 0.00 84 1014.4
20260510140404 80 67 3.0 6.0 0.00 0.08 0.00 86 1014.5
20260510135904 80 353 2.0 6.0 0.00 0.08 0.00 87 1014.3
20260510135404 80 9 2.0 6.0 0.00 0.08 0.00 88 1014.3
20260510134903 79 29 1.0 5.0 0.00 0.08 0.00 89 1014.2
20260510133904 78 160 0.0 0.0 0.00 0.08 0.00 90 1014.1
20260510133404 78 160 0.0 0.0 0.00 0.08 0.00 90 1014.1
20260510132904 78 160 0.0 0.0 0.00 0.08 0.00 90 1014.0
20260510132405 77 160 0.0 0.0 0.00 0.08 0.00 90 1013.9
20260510131905 77 160 0.0 2.0 0.00 0.08 0.00 90 1013.7
20260510130904 77 160 0.0 2.0 0.00 0.08 0.00 90 1013.5
20260510130405 77 160 1.0 2.0 0.00 0.08 0.00 90 1013.4
20260510125404 76 160 1.0 2.0 0.00 0.08 0.00 90 1013.2
20260510124905 76 160 1.0 1.0 0.00 0.08 0.00 90 1013.1
20260510124405 76 160 0.0 2.0 0.00 0.08 0.00 90 1013.0
20260510123404 76 160 0.0 2.0 0.00 0.08 0.00 90 1012.9
20260510122904 76 160 0.0 2.0 0.00 0.08 0.00 90 1012.8
20260510122405 76 160 0.0 0.0 0.00 0.08 0.00 90 1012.7
20260510121903 76 160 0.0 0.0 0.00 0.08 0.00 90 1012.6
20260510120905 76 160 0.0 2.0 0.00 0.08 0.00 90 1012.5
20260510120404 76 160 0.0 2.0 0.00 0.08 0.00 90 1012.3
20260510115405 76 160 0.0 2.0 0.00 0.08 0.00 90 1012.1
20260510113904 76 160 2.0 5.0 0.00 0.08 0.00 90 1011.8
20260510113404 76 186 0.0 3.0 0.00 0.08 0.00 90 1011.7
20260510112904 76 187 0.0 3.0 0.00 0.08 0.00 90 1011.6
20260510112404 76 187 1.0 3.0 0.00 0.08 0.00 90 1011.6
20260510111904 76 187 2.0 6.0 0.00 0.08 0.00 90 1011.5
20260510111404 75 190 2.0 6.0 0.00 0.08 0.00 90 1011.6
20260510110903 75 135 0.0 6.0 0.00 0.08 0.00 90 1011.5
20260510110404 75 175 1.0 5.0 0.00 0.08 0.00 90 1011.4
20260510105904 75 175 1.0 5.0 0.00 0.08 0.00 90 1011.4
20260510105405 75 173 2.0 5.0 0.00 0.08 0.00 90 1011.3
20260510104904 75 173 1.0 3.0 0.00 0.08 0.00 90 1011.2
20260510104404 75 173 2.0 3.0 0.00 0.08 0.00 90 1011.1
20260510103904 75 161 2.0 6.0 0.00 0.08 0.00 90 1011.1
20260510103404 75 181 2.0 6.0 0.00 0.08 0.00 90 1011.0
20260510102904 75 192 3.0 6.0 0.00 0.08 0.00 90 1010.9
20260510102404 75 184 1.0 6.0 0.00 0.08 0.00 90 1010.9
20260510101905 75 160 2.0 6.0 0.00 0.08 0.00 90 1010.9
20260510101404 75 163 2.0 6.0 0.00 0.08 0.00 90 1010.8
20260510100905 75 179 3.0 8.0 0.00 0.08 0.00 90 1010.7
20260510100405 75 187 1.0 8.0 0.00 0.08 0.00 90 1010.8
20260510095403 75 182 2.0 8.0 0.00 0.08 0.00 90 1010.8
20260510094904 75 181 1.0 8.0 0.00 0.08 0.00 90 1010.8
20260510094405 75 189 3.0 7.0 0.00 0.08 0.00 90 1010.8
20260510093904 75 197 2.0 6.0 0.00 0.08 0.00 90 1010.8
20260510092905 75 184 2.0 5.0 0.00 0.08 0.00 90 1010.8
20260510092404 75 159 2.0 5.0 0.00 0.08 0.00 90 1010.8
20260510091404 75 178 1.0 3.0 0.00 0.08 0.00 90 1011.0
20260510090904 74 178 1.0 3.0 0.00 0.08 0.00 90 1010.9
20260510090405 74 171 1.0 2.0 0.00 0.08 0.00 89 1010.9
20260510085904 74 171 0.0 3.0 0.00 0.08 0.00 89 1010.8
20260510085404 74 171 1.0 3.0 0.00 0.08 0.00 89 1010.8
20260510084904 74 169 2.0 3.0 0.00 0.08 0.00 89 1010.9
20260510083404 74 164 1.0 3.0 0.00 0.08 0.00 89 1010.8
20260510082904 74 164 0.0 3.0 0.00 0.08 0.00 89 1010.8
20260510082405 74 164 1.0 3.0 0.00 0.08 0.00 89 1010.8
20260510081904 74 152 1.0 3.0 0.00 0.08 0.00 89 1010.7
20260510081404 74 152 1.0 3.0 0.00 0.08 0.00 89 1010.7
20260510080904 74 152 0.0 2.0 0.00 0.08 0.00 89 1010.7
20260510080405 74 152 0.0 1.0 0.00 0.08 0.00 89 1010.8
20260510075904 74 152 0.0 2.0 0.00 0.08 0.00 89 1010.6
20260510075405 74 152 0.0 2.0 0.00 0.08 0.00 89 1010.7
20260510074905 74 152 0.0 2.0 0.00 0.08 0.00 89 1010.7
20260510074404 74 152 1.0 2.0 0.00 0.08 0.00 89 1010.6
20260510073904 74 152 0.0 5.0 0.00 0.08 0.00 89 1010.7
20260510073404 74 151 0.0 7.0 0.00 0.08 0.00 88 1010.7
20260510072904 74 177 1.0 7.0 0.00 0.08 0.00 88 1010.7
20260510072404 74 177 2.0 7.0 0.00 0.08 0.00 88 1010.6
20260510071904 74 181 1.0 5.0 0.00 0.08 0.00 88 1010.6
20260510071404 74 179 2.0 5.0 0.00 0.08 0.00 88 1010.5
20260510070404 74 177 2.0 6.0 0.00 0.08 0.00 88 1010.6
20260510065904 74 164 2.0 8.0 0.00 0.08 0.00 88 1010.7
20260510065405 74 175 2.0 8.0 0.00 0.08 0.00 88 1010.7
20260510064904 75 186 2.0 9.0 0.00 0.08 0.00 88 1010.7
20260510064404 75 184 3.0 9.0 0.00 0.08 0.00 88 1010.7
20260510063904 75 172 3.0 8.0 0.00 0.08 0.00 88 1010.7
20260510063405 75 162 3.0 8.0 0.00 0.08 0.00 88 1010.7
20260510062904 75 170 2.0 6.0 0.00 0.08 0.00 88 1010.7
20260510062405 75 173 3.0 6.0 0.00 0.08 0.00 88 1010.8
20260510061905 75 168 1.0 3.0 0.00 0.08 0.00 88 1010.9
20260510061404 75 167 2.0 7.0 0.00 0.08 0.00 88 1010.9
20260510060404 75 151 2.0 7.0 0.00 0.08 0.00 88 1011.1
20260510055904 75 157 2.0 5.0 0.00 0.08 0.00 88 1011.1
20260510055405 75 161 2.0 8.0 0.00 0.08 0.00 88 1011.1
20260510054904 76 164 2.0 8.0 0.00 0.08 0.00 88 1011.2
20260510054404 76 167 3.0 13.0 0.00 0.08 0.00 88 1011.1
20260510053904 76 186 3.0 13.0 0.00 0.08 0.00 88 1011.1
20260510053405 76 170 5.0 10.0 0.00 0.08 0.00 88 1011.1
20260510052904 76 149 2.0 10.0 0.00 0.08 0.00 88 1011.1
20260510052404 76 162 3.0 10.0 0.00 0.08 0.00 88 1011.2
20260510051904 76 166 5.0 12.0 0.00 0.08 0.00 88 1011.2
20260510051404 76 160 3.0 12.0 0.00 0.08 0.00 88 1011.2
20260510050904 76 154 3.0 13.0 0.00 0.08 0.00 88 1011.3
20260510050404 76 169 5.0 13.0 0.00 0.08 0.00 88 1011.3
20260510045904 76 151 5.0 12.0 0.00 0.08 0.08 89 1011.4
20260510045404 76 120 5.0 12.0 0.00 0.08 0.08 88 1011.5
20260510044905 76 137 4.0 10.0 0.00 0.08 0.08 88 1011.5
20260510044404 76 127 4.0 10.0 0.00 0.08 0.08 88 1011.7
20260510043904 76 141 4.0 14.0 0.00 0.08 0.08 88 1011.7
20260510043405 76 117 3.0 14.0 0.01 0.08 0.08 88 1011.7
20260510042904 76 131 5.0 15.0 0.01 0.08 0.08 88 1011.9
20260510042404 77 134 5.0 15.0 0.03 0.08 0.08 88 1012.0
20260510040905 77 134 3.0 12.0 0.08 0.08 0.08 88 1012.1
20260510040404 77 137 5.0 12.0 0.08 0.08 0.08 88 1012.1
20260510035905 77 107 2.0 8.0 0.08 0.08 0.08 87 1012.1
20260510035403 77 92 2.0 7.0 0.08 0.08 0.08 87 1012.0
20260510034904 77 85 1.0 3.0 0.08 0.08 0.08 87 1012.0
20260510034404 77 129 0.0 3.0 0.08 0.08 0.08 86 1011.9
20260510033905 77 80 1.0 7.0 0.08 0.08 0.08 86 1011.8
20260510033404 78 148 1.0 10.0 0.07 0.07 0.07 86 1011.6
20260510032404 78 143 2.0 7.0 0.05 0.05 0.05 86 1011.5
20260510031905 78 158 2.0 7.0 0.00 0.00 0.00 85 1011.8
20260510030904 78 80 2.0 10.0 0.00 0.00 0.00 85 1011.9
20260510030405 78 76 4.0 10.0 0.00 0.00 0.00 85 1011.9
20260510025904 79 62 4.0 15.0 0.00 0.00 0.00 85 1011.9
20260510025405 79 67 2.0 15.0 0.00 0.00 0.00 84 1011.7
20260510024904 79 99 3.0 15.0 0.00 0.00 0.00 84 1011.6
20260510024405 79 120 3.0 13.0 0.00 0.00 0.00 84 1011.4
20260510023904 79 140 5.0 13.0 0.00 0.00 0.00 84 1011.3
20260510023404 79 98 3.0 8.0 0.00 0.00 0.00 84 1011.2
20260510022904 79 98 3.0 8.0 0.00 0.00 0.00 83 1011.1
20260510022403 79 124 3.0 12.0 0.00 0.00 0.00 83 1011.1
20260510021904 79 135 4.0 12.0 0.00 0.00 0.00 82 1011.1
20260510020905 80 145 4.0 12.0 0.00 0.00 0.00 81 1010.7
20260510020405 80 139 4.0 12.0 0.00 0.00 0.00 80 1010.6
20260510015905 80 145 5.0 14.0 0.00 0.00 0.00 80 1010.3
20260510015404 80 149 5.0 14.0 0.00 0.00 0.00 79 1009.9
20260510014904 81 141 6.0 14.0 0.00 0.00 0.00 77 1009.8
20260510014404 81 160 4.0 12.0 0.00 0.00 0.00 75 1009.8
20260510013404 82 171 3.0 9.0 0.00 0.00 0.00 74 1009.6
20260510012904 82 173 4.0 9.0 0.00 0.00 0.00 71 1009.6
20260510012403 82 174 3.0 10.0 0.00 0.00 0.00 69 1009.4
20260510011904 82 174 3.0 12.0 0.00 0.00 0.00 69 1009.2
20260510011404 82 182 5.0 12.0 0.00 0.00 0.00 69 1008.9
20260510010904 82 156 6.0 10.0 0.00 0.00 0.00 69 1008.8
20260510010405 83 148 3.0 12.0 0.00 0.00 0.00 69 1008.7
20260510005904 83 145 3.0 12.0 0.00 0.00 0.00 70 1008.6
20260510005404 83 145 5.0 12.0 0.00 0.00 0.00 70 1008.6
20260510004404 84 152 3.0 12.0 0.00 0.00 0.00 70 1008.5
20260510003904 84 150 4.0 12.0 0.00 0.00 0.00 69 1008.4
20260510003405 84 148 2.0 7.0 0.00 0.00 0.00 67 1008.4
20260510002905 84 148 4.0 7.0 0.00 0.00 0.00 66 1008.5
20260510002403 84 148 4.0 7.0 0.00 0.00 0.00 65 1008.4
20260510001404 85 148 3.0 9.0 0.00 0.00 0.00 64 1008.4
20260510000405 86 148 1.0 7.0 0.00 0.00 0.00 64 1008.2
20260509235404 86 148 2.0 7.0 0.00 0.00 0.00 63 1008.1
20260509234903 87 148 1.0 8.0 0.00 0.00 0.00 63 1008.0
20260509233904 88 148 3.0 9.0 0.00 0.00 0.00 62 1008.0
20260509233403 88 149 3.0 12.0 0.00 0.00 0.00 61 1007.9
20260509232404 90 142 3.0 9.0 0.00 0.00 0.00 60 1007.9
20260509231405 90 141 1.0 9.0 0.00 0.00 0.00 60 1008.2
20260509230904 90 143 2.0 9.0 0.00 0.00 0.00 60 1008.1
20260509230404 90 148 4.0 12.0 0.00 0.00 0.00 60 1008.0
20260509225904 91 149 6.0 12.0 0.00 0.00 0.00 61 1008.1
20260509225404 91 150 3.0 8.0 0.00 0.00 0.00 61 1008.0
20260509224904 91 150 3.0 7.0 0.00 0.00 0.00 61 1007.8
20260509224404 91 150 2.0 10.0 0.00 0.00 0.00 62 1007.7
20260509223905 90 150 3.0 10.0 0.00 0.00 0.00 61 1007.7
20260509223404 91 150 5.0 10.0 0.00 0.00 0.00 61 1007.8
20260509222904 91 150 5.0 12.0 0.00 0.00 0.00 61 1007.8
20260509222404 92 150 2.0 12.0 0.00 0.00 0.00 59 1007.9
20260509220904 93 165 3.0 9.0 0.00 0.00 0.00 58 1007.6
20260509220404 94 167 2.0 9.0 0.00 0.00 0.00 56 1007.6
20260509215904 94 168 3.0 9.0 0.00 0.00 0.00 55 1007.6
20260509215404 94 168 4.0 9.0 0.00 0.00 0.00 54 1007.6
20260509214904 95 179 2.0 7.0 0.00 0.00 0.00 55 1007.6
20260509213905 95 179 2.0 12.0 0.00 0.00 0.00 54 1007.6
20260509213404 95 190 4.0 10.0 0.00 0.00 0.00 54 1007.5
20260509212404 96 211 2.0 5.0 0.00 0.00 0.00 51 1007.5
20260509211904 96 214 2.0 6.0 0.00 0.00 0.00 49 1007.5
20260509211404 97 215 1.0 7.0 0.00 0.00 0.00 50 1007.6
20260509210905 97 215 3.0 7.0 0.00 0.00 0.00 52 1007.6
20260509210405 96 230 1.0 3.0 0.00 0.00 0.00 53 1007.5
20260509205905 96 230 1.0 6.0 0.00 0.00 0.00 53 1007.7
20260509205404 97 229 2.0 6.0 0.00 0.00 0.00 51 1007.7
20260509204904 97 231 1.0 6.0 0.00 0.00 0.00 53 1007.7
20260509204404 97 245 3.0 6.0 0.00 0.00 0.00 53 1007.8
20260509203904 96 270 2.0 3.0 0.00 0.00 0.00 52 1007.8
20260509202904 95 271 2.0 7.0 0.00 0.00 0.00 56 1007.9
20260509202404 95 272 2.0 7.0 0.00 0.00 0.00 54 1007.9
20260509201904 95 248 1.0 5.0 0.00 0.00 0.00 54 1007.9
20260509201404 95 250 2.0 5.0 0.00 0.00 0.00 56 1008.0
20260509200904 94 260 1.0 5.0 0.00 0.00 0.00 59 1008.1
20260509200404 94 265 0.0 5.0 0.00 0.00 0.00 57 1008.3
20260509195904 94 265 0.0 1.0 0.00 0.00 0.00 50 1008.4
20260509195404 94 265 0.0 2.0 0.00 0.00 0.00 50 1008.4
20260509194903 95 265 0.0 3.0 0.00 0.00 0.00 49 1008.4
20260509194404 95 265 1.0 3.0 0.00 0.00 0.00 48 1008.4
20260509193904 95 265 1.0 3.0 0.00 0.00 0.00 50 1008.4
20260509193404 95 266 1.0 5.0 0.00 0.00 0.00 50 1008.4
20260509192905 94 266 2.0 5.0 0.00 0.00 0.00 53 1008.4
20260509192403 94 246 2.0 5.0 0.00 0.00 0.00 52 1008.4
20260509191403 93 229 1.0 3.0 0.00 0.00 0.00 52 1008.4
20260509190904 93 229 1.0 3.0 0.00 0.00 0.00 55 1008.4
20260509190403 93 229 0.0 3.0 0.00 0.00 0.00 56 1008.5
20260509185905 93 229 1.0 3.0 0.00 0.00 0.00 53 1008.7
20260509185404 92 229 1.0 3.0 0.00 0.00 0.00 54 1008.8
20260509184903 92 223 2.0 3.0 0.00 0.00 0.00 54 1008.7
20260509184404 92 220 1.0 3.0 0.00 0.00 0.00 59 1008.7
20260509183904 91 220 1.0 3.0 0.00 0.00 0.00 58 1008.7
20260509183404 91 220 0.0 3.0 0.00 0.00 0.00 63 1008.9
20260509182904 90 220 1.0 3.0 0.00 0.00 0.00 61 1009.1
20260509182403 90 220 2.0 3.0 0.00 0.00 0.00 63 1009.2
20260509181903 89 219 1.0 3.0 0.00 0.00 0.00 62 1009.3
20260509181403 89 216 0.0 3.0 0.00 0.00 0.00 65 1009.3
20260509180903 88 216 2.0 5.0 0.00 0.00 0.00 65 1009.4
20260509180404 87 216 1.0 8.0 0.00 0.00 0.00 68 1009.6
20260509175903 87 214 2.0 8.0 0.00 0.00 0.00 69 1009.7
20260509175404 86 220 1.0 3.0 0.00 0.00 0.00 70 1009.8
20260509174903 86 220 1.0 3.0 0.00 0.00 0.00 71 1010.1
20260509174403 85 220 0.0 3.0 0.00 0.00 0.00 73 1010.1
20260509173904 85 220 0.0 3.0 0.00 0.01 0.00 72 1010.2
20260509173403 85 220 1.0 3.0 0.00 0.01 0.00 73 1010.3
20260509172903 85 220 1.0 6.0 0.00 0.01 0.00 72 1010.3
20260509172403 85 220 2.0 6.0 0.00 0.01 0.00 72 1010.2
20260509171904 85 208 1.0 6.0 0.00 0.01 0.00 72 1010.2
20260509171403 85 208 1.0 6.0 0.00 0.01 0.00 72 1010.2
20260509170904 85 207 1.0 6.0 0.00 0.01 0.00 73 1010.3
20260509170404 85 206 1.0 3.0 0.00 0.02 0.00 73 1010.3
20260509165404 85 204 2.0 6.0 0.00 0.02 0.00 72 1010.3
20260509163904 86 187 2.0 6.0 0.00 0.02 0.00 72 1010.4
20260509163404 86 162 1.0 3.0 0.00 0.02 0.00 74 1010.2
20260509162904 85 162 0.0 2.0 0.00 0.02 0.00 75 1010.2
20260509162403 85 162 0.0 0.0 0.00 0.03 0.00 75 1010.1
20260509161903 84 162 0.0 0.0 0.00 0.03 0.00 76 1010.1